Orbital Elements at Epoch 2459200.5 (2020-Dec-17.0) TDB
Reference: JPL 33 (heliocentric ecliptic J2000)
Element | Value | Uncertainty (1-sigma) | Units |
e | .06322700048848137 | 2.8062e-08 | |
a | 2.771420880214907 | 1.0937e-08 | au |
q | 2.596192250867772 | 7.9279e-08 | au |
i | 3.759553337526582 | 3.0082e-06 | deg |
node | 146.3221144986289 | 5.0384e-05 | deg |
peri | 43.09721204475424 | 5.7494e-05 | deg |
M | 243.9031267662629 | 2.9202e-05 | deg |
tp | 2459743.963243495898 (2022-Jun-13.46324350) | 0.00013759 | TDB |
period | 1685.20272948806 4.61 | 9.9757e-06 2.731e-08 | d yr |
n | .2136241496056458 | 1.2646e-09 | deg/d |
Q | 2.946649509562043 | 1.1629e-08 | au |
|
| | Orbit Determination Parameters
Additional Information
|